| time (UTC) | temp C | wind direction | speed KPH | gust KPH | rain 1hr cm | rain 24hr cm | rain mn cm | humidity % | barometer mb |
| 20260509045340 | 22 | 76 | 0.0 | 1.6 | 0.00 | 0.00 | 0.00 | 94 | 1011.2 |
| 20260509044837 | 22 | 269 | 0.0 | 0.0 | 0.00 | 0.00 | 0.00 | 94 | 1011.0 |
| 20260509044335 | 22 | 235 | 0.0 | 1.6 | 0.00 | 0.00 | 0.00 | 94 | 1011.0 |
| 20260509043831 | 22 | 157 | 0.0 | 0.0 | 0.00 | 0.00 | 0.00 | 93 | 1011.0 |
| 20260509043327 | 22 | 118 | 0.0 | 3.2 | 0.00 | 0.00 | 0.00 | 93 | 1011.0 |
| 20260509042823 | 22 | 246 | 0.0 | 0.0 | 0.00 | 0.00 | 0.00 | 93 | 1010.9 |
| 20260509042320 | 22 | 129 | 0.0 | 0.0 | 0.00 | 0.00 | 0.00 | 93 | 1011.0 |
| 20260509041816 | 22 | 104 | 0.0 | 3.2 | 0.00 | 0.00 | 0.00 | 92 | 1010.8 |
| 20260509041314 | 22 | 111 | 0.0 | 3.2 | 0.00 | 0.00 | 0.00 | 92 | 1010.7 |
| 20260509040812 | 22 | 113 | 0.0 | 0.0 | 0.00 | 0.00 | 0.00 | 91 | 1011.0 |
| 20260509040309 | 22 | 126 | 0.0 | 0.0 | 0.00 | 0.00 | 0.00 | 91 | 1011.2 |
| 20260509035806 | 23 | 164 | 0.0 | 3.2 | 0.00 | 0.00 | 0.00 | 91 | 1011.0 |
| 20260509035306 | 23 | 131 | 0.0 | 3.2 | 0.00 | 0.00 | 0.00 | 90 | 1011.0 |
| 20260509034759 | 23 | 137 | 0.0 | 3.2 | 0.00 | 0.00 | 0.00 | 90 | 1011.1 |
| 20260509034257 | 23 | 164 | 0.0 | 3.2 | 0.00 | 0.00 | 0.00 | 90 | 1010.8 |
| 20260509033754 | 23 | 159 | 1.6 | 4.8 | 0.00 | 0.00 | 0.00 | 90 | 1010.9 |
| 20260509033251 | 23 | 31 | 0.0 | 1.6 | 0.00 | 0.00 | 0.00 | 90 | 1010.8 |
| 20260509032748 | 23 | 298 | 1.6 | 4.8 | 0.00 | 0.00 | 0.00 | 90 | 1010.9 |
| 20260509032244 | 23 | 307 | 0.0 | 3.2 | 0.00 | 0.00 | 0.00 | 89 | 1011.0 |
| 20260509031742 | 23 | 230 | 0.0 | 0.0 | 0.00 | 0.00 | 0.00 | 89 | 1011.0 |
| 20260509031240 | 23 | 117 | 0.0 | 1.6 | 0.00 | 0.00 | 0.00 | 89 | 1011.0 |
| 20260509030738 | 23 | 310 | 0.0 | 1.6 | 0.00 | 0.00 | 0.00 | 88 | 1010.8 |
| 20260509030235 | 23 | 241 | 1.6 | 1.6 | 0.00 | 0.00 | 0.00 | 88 | 1010.9 |
| 20260509025732 | 23 | 135 | 0.0 | 1.6 | 0.00 | 0.00 | 0.00 | 88 | 1010.6 |
| 20260509025227 | 23 | 131 | 0.0 | 3.2 | 0.00 | 0.00 | 0.00 | 88 | 1010.7 |
| 20260509024722 | 23 | 224 | 0.0 | 1.6 | 0.00 | 0.00 | 0.00 | 88 | 1010.8 |
| 20260509024218 | 23 | 130 | 0.0 | 1.6 | 0.00 | 0.00 | 0.00 | 88 | 1010.5 |
| 20260509023716 | 23 | 128 | 0.0 | 3.2 | 0.00 | 0.00 | 0.00 | 87 | 1010.3 |
| 20260509023213 | 23 | 130 | 0.0 | 3.2 | 0.00 | 0.00 | 0.00 | 87 | 1010.4 |
| 20260509022709 | 23 | 147 | 0.0 | 3.2 | 0.00 | 0.00 | 0.00 | 87 | 1010.4 |
| 20260509022207 | 23 | 136 | 1.6 | 3.2 | 0.00 | 0.00 | 0.00 | 87 | 1010.3 |
| 20260509021704 | 23 | 122 | 3.2 | 4.8 | 0.00 | 0.00 | 0.00 | 86 | 1010.3 |
| 20260509021201 | 23 | 125 | 1.6 | 6.4 | 0.00 | 0.00 | 0.00 | 86 | 1010.0 |
| 20260509020659 | 23 | 133 | 0.0 | 4.8 | 0.00 | 0.00 | 0.00 | 86 | 1009.8 |
| 20260509020156 | 24 | 86 | 4.8 | 6.4 | 0.00 | 0.00 | 0.00 | 85 | 1009.7 |
| 20260509015654 | 24 | 131 | 0.0 | 3.2 | 0.00 | 0.00 | 0.00 | 85 | 1009.9 |
| 20260509015152 | 24 | 126 | 0.0 | 3.2 | 0.00 | 0.00 | 0.00 | 85 | 1009.6 |
| 20260509014648 | 24 | 139 | 1.6 | 1.6 | 0.00 | 0.00 | 0.00 | 85 | 1009.8 |
| 20260509014144 | 23 | 108 | 1.6 | 1.6 | 0.00 | 0.00 | 0.00 | 85 | 1009.7 |
| 20260509013642 | 24 | 304 | 0.0 | 0.0 | 0.00 | 0.00 | 0.00 | 85 | 1009.7 |
| 20260509013138 | 24 | 117 | 0.0 | 3.2 | 0.00 | 0.00 | 0.00 | 84 | 1009.5 |
| 20260509012634 | 24 | 180 | 0.0 | 3.2 | 0.00 | 0.00 | 0.00 | 84 | 1009.5 |
| 20260509012131 | 24 | 173 | 0.0 | 3.2 | 0.00 | 0.00 | 0.00 | 84 | 1009.6 |
| 20260509011630 | 24 | 109 | 0.0 | 1.6 | 0.00 | 0.00 | 0.00 | 84 | 1009.6 |
| 20260509011126 | 24 | 132 | 0.0 | 3.2 | 0.00 | 0.00 | 0.00 | 84 | 1009.5 |
| 20260509010624 | 24 | 138 | 3.2 | 6.4 | 0.00 | 0.00 | 0.00 | 84 | 1009.5 |
| 20260509010120 | 24 | 151 | 3.2 | 4.8 | 0.00 | 0.00 | 0.00 | 83 | 1009.5 |
| 20260509005618 | 24 | 148 | 0.0 | 3.2 | 0.00 | 0.00 | 0.00 | 83 | 1009.4 |
| 20260509005113 | 25 | 159 | 4.8 | 4.8 | 0.00 | 0.00 | 0.00 | 83 | 1009.3 |
| 20260509004610 | 25 | 188 | 0.0 | 3.2 | 0.00 | 0.00 | 0.00 | 83 | 1009.5 |
| 20260509004107 | 25 | 117 | 0.0 | 8.0 | 0.00 | 0.00 | 0.00 | 82 | 1009.5 |
| 20260509003606 | 25 | 102 | 3.2 | 3.2 | 0.00 | 0.00 | 0.00 | 83 | 1009.4 |
| 20260509003102 | 25 | 98 | 0.0 | 3.2 | 0.00 | 0.00 | 0.00 | 82 | 1009.6 |
| 20260509002600 | 25 | 96 | 1.6 | 4.8 | 0.00 | 0.00 | 0.00 | 82 | 1009.4 |
| 20260509002057 | 25 | 132 | 3.2 | 8.0 | 0.00 | 0.00 | 0.00 | 82 | 1009.3 |
| 20260509001554 | 25 | 127 | 4.8 | 8.0 | 0.00 | 0.00 | 0.00 | 82 | 1009.5 |
| 20260509001050 | 25 | 115 | 0.0 | 6.4 | 0.00 | 0.00 | 0.00 | 82 | 1009.4 |
| 20260509000549 | 25 | 110 | 3.2 | 4.8 | 0.00 | 0.00 | 0.00 | 82 | 1009.3 |
| 20260509000044 | 25 | 133 | 3.2 | 6.4 | 0.00 | 0.00 | 0.00 | 82 | 1009.4 |
| 20260508235542 | 25 | 118 | 1.6 | 8.0 | 0.00 | 0.00 | 0.00 | 81 | 1009.4 |
| 20260508235038 | 25 | 282 | 0.0 | 1.6 | 0.00 | 0.00 | 0.00 | 81 | 1009.3 |
| 20260508234536 | 25 | 138 | 4.8 | 8.0 | 0.00 | 0.00 | 0.00 | 81 | 1009.4 |
| 20260508234033 | 25 | 140 | 1.6 | 6.4 | 0.00 | 0.00 | 0.00 | 82 | 1009.5 |
| 20260508233532 | 25 | 129 | 1.6 | 6.4 | 0.00 | 0.00 | 0.00 | 82 | 1009.2 |
| 20260508233029 | 25 | 103 | 4.8 | 8.0 | 0.00 | 0.00 | 0.00 | 81 | 1009.3 |
| 20260508232526 | 25 | 192 | 1.6 | 8.0 | 0.00 | 0.00 | 0.00 | 81 | 1009.4 |
| 20260508232023 | 25 | 134 | 3.2 | 4.8 | 0.00 | 0.00 | 0.00 | 80 | 1009.3 |
| 20260508231520 | 25 | 117 | 1.6 | 6.4 | 0.00 | 0.00 | 0.00 | 81 | 1009.2 |
| 20260508231017 | 25 | 159 | 4.8 | 6.4 | 0.00 | 0.00 | 0.00 | 81 | 1009.3 |
| 20260508230514 | 25 | 112 | 4.8 | 9.7 | 0.00 | 0.00 | 0.00 | 81 | 1009.7 |
| 20260508230011 | 25 | 99 | 0.0 | 8.0 | 0.00 | 0.00 | 0.00 | 81 | 1009.6 |
| 20260508225508 | 25 | 62 | 0.0 | 6.4 | 0.00 | 0.00 | 0.00 | 80 | 1009.6 |
| 20260508225004 | 25 | 133 | 8.0 | 9.7 | 0.00 | 0.00 | 0.00 | 80 | 1009.8 |
| 20260508224503 | 25 | 130 | 0.0 | 4.8 | 0.00 | 0.00 | 0.00 | 79 | 1009.7 |
| 20260508223959 | 25 | 81 | 0.0 | 4.8 | 0.00 | 0.00 | 0.00 | 79 | 1009.8 |
| 20260508223457 | 25 | 124 | 3.2 | 8.0 | 0.00 | 0.00 | 0.00 | 79 | 1009.7 |
| 20260508222954 | 25 | 134 | 0.0 | 4.8 | 0.00 | 0.00 | 0.00 | 78 | 1009.8 |
| 20260508222452 | 26 | 115 | 4.8 | 4.8 | 0.00 | 0.00 | 0.00 | 77 | 1009.9 |
| 20260508221948 | 26 | 263 | 1.6 | 9.7 | 0.00 | 0.00 | 0.00 | 77 | 1009.7 |
| 20260508221444 | 26 | 121 | 4.8 | 4.8 | 0.00 | 0.00 | 0.00 | 77 | 1009.8 |
| 20260508220940 | 25 | 124 | 3.2 | 6.4 | 0.00 | 0.00 | 0.00 | 78 | 1009.7 |
| 20260508220437 | 26 | 114 | 4.8 | 9.7 | 0.00 | 0.00 | 0.00 | 76 | 1009.8 |
| 20260508215933 | 26 | 292 | 0.0 | 9.7 | 0.00 | 0.00 | 0.00 | 75 | 1010.0 |
| 20260508215431 | 26 | 142 | 4.8 | 11.3 | 0.00 | 0.00 | 0.00 | 75 | 1009.8 |
| 20260508214927 | 26 | 98 | 0.0 | 9.7 | 0.00 | 0.00 | 0.00 | 75 | 1009.8 |
| 20260508214425 | 26 | 335 | 1.6 | 4.8 | 0.00 | 0.00 | 0.00 | 74 | 1009.8 |
| 20260508213920 | 26 | 269 | 0.0 | 4.8 | 0.00 | 0.00 | 0.00 | 75 | 1009.9 |
| 20260508213418 | 26 | 290 | 0.0 | 3.2 | 0.00 | 0.00 | 0.00 | 76 | 1009.9 |
| 20260508212914 | 25 | 225 | 8.0 | 8.0 | 0.00 | 0.00 | 0.00 | 76 | 1010.0 |
| 20260508212410 | 25 | 132 | 4.8 | 6.4 | 0.00 | 0.00 | 0.00 | 77 | 1010.1 |
| 20260508211906 | 25 | 55 | 0.0 | 6.4 | 0.00 | 0.00 | 0.00 | 77 | 1010.3 |
| 20260508211402 | 25 | 114 | 0.0 | 4.8 | 0.00 | 0.00 | 0.00 | 76 | 1010.3 |
| 20260508210900 | 25 | 86 | 4.8 | 8.0 | 0.00 | 0.00 | 0.00 | 75 | 1010.5 |
| 20260508210356 | 26 | 220 | 1.6 | 8.0 | 0.00 | 0.00 | 0.00 | 74 | 1010.6 |
| 20260508205852 | 25 | 124 | 1.6 | 6.4 | 0.00 | 0.00 | 0.00 | 75 | 1010.5 |
| 20260508205349 | 25 | 120 | 3.2 | 6.4 | 0.00 | 0.00 | 0.00 | 75 | 1010.5 |
| 20260508204845 | 25 | 106 | 4.8 | 8.0 | 0.00 | 0.00 | 0.00 | 75 | 1010.5 |
| 20260508204343 | 25 | 122 | 1.6 | 4.8 | 0.00 | 0.00 | 0.00 | 75 | 1010.3 |
| 20260508203838 | 25 | 136 | 4.8 | 11.3 | 0.00 | 0.00 | 0.00 | 75 | 1010.4 |
| 20260508203335 | 26 | 107 | 3.2 | 6.4 | 0.00 | 0.00 | 0.00 | 73 | 1010.7 |
| 20260508202830 | 25 | 141 | 3.2 | 11.3 | 0.00 | 0.00 | 0.00 | 74 | 1010.7 |
| 20260508202328 | 25 | 147 | 1.6 | 3.2 | 0.00 | 0.00 | 0.00 | 74 | 1010.7 |
| 20260508201825 | 25 | 146 | 1.6 | 4.8 | 0.00 | 0.00 | 0.00 | 72 | 1010.8 |
| 20260508201322 | 26 | 214 | 3.2 | 6.4 | 0.00 | 0.00 | 0.00 | 72 | 1010.9 |
| 20260508200818 | 25 | 119 | 1.6 | 6.4 | 0.00 | 0.00 | 0.00 | 73 | 1010.9 |
| 20260508200315 | 25 | 163 | 1.6 | 8.0 | 0.00 | 0.00 | 0.00 | 74 | 1010.8 |
| 20260508195811 | 25 | 267 | 3.2 | 6.4 | 0.00 | 0.00 | 0.00 | 73 | 1010.7 |
| 20260508195308 | 25 | 157 | 3.2 | 4.8 | 0.00 | 0.00 | 0.00 | 73 | 1011.1 |
| 20260508194804 | 25 | 97 | 3.2 | 4.8 | 0.00 | 0.00 | 0.00 | 72 | 1011.3 |
| 20260508194301 | 25 | 133 | 1.6 | 4.8 | 0.00 | 0.00 | 0.00 | 72 | 1011.2 |
| 20260508193758 | 25 | 201 | 1.6 | 8.0 | 0.00 | 0.00 | 0.00 | 74 | 1010.9 |
| 20260508193255 | 24 | 56 | 0.0 | 8.0 | 0.00 | 0.00 | 0.00 | 75 | 1011.0 |
| 20260508192751 | 25 | 83 | 8.0 | 8.0 | 0.00 | 0.00 | 0.00 | 72 | 1011.0 |
| 20260508192248 | 25 | 110 | 0.0 | 3.2 | 0.00 | 0.00 | 0.00 | 73 | 1011.1 |
| 20260508191746 | 24 | 6 | 3.2 | 4.8 | 0.00 | 0.00 | 0.00 | 74 | 1011.2 |
| 20260508191243 | 23 | 94 | 6.4 | 6.4 | 0.00 | 0.00 | 0.00 | 74 | 1011.3 |
| 20260508190740 | 24 | 119 | 1.6 | 4.8 | 0.00 | 0.00 | 0.00 | 73 | 1011.6 |
| 20260508190235 | 24 | 239 | 3.2 | 3.2 | 0.00 | 0.00 | 0.00 | 73 | 1011.6 |
| 20260508185732 | 23 | 220 | 0.0 | 4.8 | 0.00 | 0.00 | 0.00 | 76 | 1011.6 |
| 20260508185230 | 22 | 241 | 0.0 | 4.8 | 0.00 | 0.00 | 0.00 | 77 | 1011.5 |
| 20260508184727 | 22 | 66 | 1.6 | 3.2 | 0.00 | 0.00 | 0.00 | 76 | 1011.9 |
| 20260508184224 | 22 | 221 | 0.0 | 4.8 | 0.00 | 0.00 | 0.00 | 76 | 1011.6 |
| 20260508183721 | 22 | 116 | 3.2 | 4.8 | 0.00 | 0.00 | 0.00 | 77 | 1011.8 |
| 20260508183217 | 22 | 119 | 0.0 | 1.6 | 0.00 | 0.00 | 0.00 | 78 | 1012.0 |
| 20260508182713 | 22 | 89 | 0.0 | 6.4 | 0.00 | 0.00 | 0.00 | 77 | 1011.9 |
| 20260508182210 | 22 | 89 | 0.0 | 3.2 | 0.00 | 0.00 | 0.00 | 77 | 1012.0 |
| 20260508181706 | 22 | 99 | 3.2 | 4.8 | 0.00 | 0.00 | 0.00 | 77 | 1012.2 |
| 20260508181203 | 22 | 103 | 4.8 | 4.8 | 0.00 | 0.00 | 0.00 | 77 | 1012.1 |
| 20260508180659 | 22 | 92 | 6.4 | 8.0 | 0.00 | 0.00 | 0.00 | 76 | 1012.2 |
| 20260508180157 | 22 | 110 | 0.0 | 4.8 | 0.00 | 0.00 | 0.00 | 77 | 1012.4 |
| 20260508175653 | 22 | 100 | 3.2 | 4.8 | 0.00 | 0.00 | 0.00 | 78 | 1012.3 |
| 20260508175149 | 22 | 351 | 1.6 | 3.2 | 0.00 | 0.00 | 0.00 | 77 | 1012.5 |
| 20260508174648 | 21 | 53 | 0.0 | 4.8 | 0.00 | 0.00 | 0.00 | 77 | 1012.3 |
| 20260508174144 | 22 | 72 | 1.6 | 3.2 | 0.00 | 0.00 | 0.00 | 77 | 1012.3 |
| 20260508173641 | 21 | 315 | 0.0 | 4.8 | 0.00 | 0.00 | 0.00 | 76 | 1012.5 |
| 20260508173137 | 21 | 116 | 0.0 | 4.8 | 0.00 | 0.00 | 0.00 | 78 | 1012.5 |
| 20260508172629 | 21 | 77 | 6.4 | 6.4 | 0.00 | 0.00 | 0.00 | 78 | 1012.7 |
| 20260508172125 | 21 | 110 | 1.6 | 4.8 | 0.00 | 0.00 | 0.00 | 78 | 1012.7 |
| 20260508171622 | 21 | 127 | 0.0 | 6.4 | 0.00 | 0.00 | 0.00 | 78 | 1012.8 |
| 20260508171118 | 20 | 101 | 1.6 | 3.2 | 0.00 | 0.00 | 0.00 | 79 | 1012.6 |
| 20260508170616 | 20 | 75 | 3.2 | 4.8 | 0.00 | 0.00 | 0.00 | 79 | 1012.9 |
| 20260508170113 | 20 | 100 | 4.8 | 4.8 | 0.00 | 0.00 | 0.00 | 79 | 1012.8 |
| 20260508165610 | 20 | 110 | 6.4 | 6.4 | 0.00 | 0.00 | 0.00 | 79 | 1012.8 |
| 20260508165107 | 20 | 57 | 4.8 | 8.0 | 0.00 | 0.00 | 0.00 | 79 | 1012.7 |
| 20260508164603 | 20 | 3 | 1.6 | 3.2 | 0.00 | 0.00 | 0.00 | 79 | 1012.8 |
| 20260508164100 | 20 | 57 | 3.2 | 8.0 | 0.00 | 0.00 | 0.00 | 78 | 1012.7 |
| 20260508163557 | 20 | 95 | 1.6 | 3.2 | 0.00 | 0.00 | 0.00 | 78 | 1012.9 |
| 20260508163054 | 20 | 352 | 3.2 | 3.2 | 0.00 | 0.00 | 0.00 | 78 | 1012.9 |
| 20260508162551 | 20 | 47 | 4.8 | 6.4 | 0.00 | 0.00 | 0.00 | 79 | 1013.0 |
| 20260508162048 | 20 | 68 | 4.8 | 4.8 | 0.00 | 0.00 | 0.00 | 80 | 1012.9 |
| 20260508161545 | 20 | 89 | 4.8 | 4.8 | 0.00 | 0.00 | 0.00 | 79 | 1013.1 |
| 20260508161042 | 20 | 98 | 3.2 | 6.4 | 0.00 | 0.00 | 0.00 | 79 | 1013.2 |
| 20260508160541 | 20 | 285 | 0.0 | 4.8 | 0.00 | 0.00 | 0.00 | 79 | 1013.2 |
| 20260508160037 | 20 | 17 | 3.2 | 4.8 | 0.00 | 0.00 | 0.00 | 79 | 1013.2 |
| 20260508155534 | 19 | 316 | 3.2 | 4.8 | 0.00 | 0.00 | 0.00 | 80 | 1013.5 |
| 20260508155031 | 19 | 103 | 3.2 | 6.4 | 0.00 | 0.00 | 0.00 | 79 | 1013.4 |
| 20260508154528 | 20 | 41 | 4.8 | 8.0 | 0.00 | 0.00 | 0.00 | 79 | 1013.5 |
| 20260508154025 | 19 | 6 | 6.4 | 11.3 | 0.00 | 0.00 | 0.00 | 78 | 1013.2 |
| 20260508153522 | 19 | 60 | 11.3 | 12.9 | 0.00 | 0.00 | 0.00 | 78 | 1013.4 |
| 20260508153019 | 19 | 51 | 6.4 | 8.0 | 0.00 | 0.00 | 0.00 | 79 | 1013.5 |
| 20260508152516 | 18 | 32 | 4.8 | 8.0 | 0.00 | 0.00 | 0.00 | 79 | 1013.8 |
| 20260508152011 | 18 | 358 | 3.2 | 6.4 | 0.00 | 0.00 | 0.00 | 80 | 1013.9 |
| 20260508151508 | 18 | 353 | 1.6 | 4.8 | 0.00 | 0.00 | 0.00 | 81 | 1014.0 |
| 20260508151004 | 18 | 100 | 4.8 | 6.4 | 0.00 | 0.00 | 0.00 | 81 | 1014.1 |
| 20260508150502 | 17 | 337 | 4.8 | 6.4 | 0.00 | 0.00 | 0.00 | 81 | 1013.8 |
| 20260508145957 | 17 | 76 | 6.4 | 6.4 | 0.00 | 0.00 | 0.00 | 81 | 1014.2 |
| 20260508145454 | 17 | 344 | 3.2 | 4.8 | 0.00 | 0.00 | 0.00 | 81 | 1014.1 |
| 20260508144950 | 17 | 324 | 6.4 | 8.0 | 0.00 | 0.00 | 0.00 | 82 | 1014.0 |
| 20260508144448 | 17 | 311 | 3.2 | 4.8 | 0.00 | 0.00 | 0.00 | 82 | 1013.9 |
| 20260508143946 | 17 | 18 | 4.8 | 6.4 | 0.00 | 0.00 | 0.00 | 82 | 1014.1 |
| 20260508143443 | 17 | 1 | 3.2 | 6.4 | 0.00 | 0.00 | 0.00 | 82 | 1014.0 |
| 20260508142939 | 17 | 6 | 4.8 | 6.4 | 0.00 | 0.00 | 0.00 | 82 | 1013.8 |
| 20260508142437 | 17 | 41 | 4.8 | 8.0 | 0.00 | 0.00 | 0.00 | 82 | 1013.9 |
| 20260508141933 | 17 | 15 | 1.6 | 4.8 | 0.00 | 0.00 | 0.00 | 83 | 1014.0 |
| 20260508141429 | 17 | 328 | 0.0 | 8.0 | 0.00 | 0.00 | 0.00 | 82 | 1013.9 |
| 20260508140927 | 17 | 343 | 3.2 | 8.0 | 0.00 | 0.00 | 0.00 | 83 | 1014.0 |
| 20260508140424 | 17 | 34 | 6.4 | 9.7 | 0.00 | 0.00 | 0.00 | 83 | 1014.0 |
| 20260508135920 | 17 | 0 | 4.8 | 6.4 | 0.00 | 0.00 | 0.00 | 83 | 1013.9 |
| 20260508135417 | 17 | 53 | 1.6 | 6.4 | 0.00 | 0.00 | 0.00 | 83 | 1013.8 |
| 20260508134913 | 17 | 29 | 1.6 | 9.7 | 0.00 | 0.00 | 0.00 | 84 | 1014.0 |
| 20260508134409 | 17 | 72 | 4.8 | 6.4 | 0.00 | 0.00 | 0.00 | 84 | 1013.9 |
| 20260508133906 | 16 | 4 | 4.8 | 6.4 | 0.00 | 0.00 | 0.00 | 84 | 1014.2 |
| 20260508133404 | 16 | 0 | 3.2 | 6.4 | 0.00 | 0.00 | 0.00 | 84 | 1014.2 |
| 20260508132901 | 16 | 67 | 4.8 | 8.0 | 0.00 | 0.00 | 0.00 | 84 | 1014.1 |
| 20260508132359 | 16 | 321 | 0.0 | 6.4 | 0.00 | 0.00 | 0.00 | 84 | 1013.9 |
| 20260508131855 | 16 | 1 | 3.2 | 6.4 | 0.00 | 0.00 | 0.00 | 84 | 1014.0 |
| 20260508131350 | 16 | 336 | 4.8 | 6.4 | 0.00 | 0.00 | 0.00 | 84 | 1014.1 |
| 20260508130848 | 16 | 344 | 3.2 | 4.8 | 0.00 | 0.00 | 0.00 | 84 | 1014.3 |
| 20260508130344 | 16 | 336 | 4.8 | 8.0 | 0.00 | 0.00 | 0.00 | 84 | 1014.3 |
| 20260508125840 | 16 | 21 | 6.4 | 8.0 | 0.00 | 0.00 | 0.00 | 84 | 1014.2 |
| 20260508125336 | 16 | 326 | 3.2 | 9.7 | 0.00 | 0.00 | 0.00 | 85 | 1014.3 |
| 20260508124835 | 16 | 354 | 4.8 | 9.7 | 0.00 | 0.00 | 0.00 | 85 | 1014.3 |
| 20260508124332 | 16 | 20 | 4.8 | 11.3 | 0.00 | 0.00 | 0.00 | 85 | 1014.0 |
| 20260508123830 | 16 | 353 | 4.8 | 9.7 | 0.00 | 0.00 | 0.00 | 86 | 1014.0 |
| 20260508123328 | 16 | 5 | 6.4 | 8.0 | 0.00 | 0.00 | 0.00 | 86 | 1013.9 |
| 20260508122824 | 16 | 329 | 8.0 | 14.5 | 0.00 | 0.00 | 0.00 | 86 | 1014.0 |
| 20260508122321 | 16 | 312 | 4.8 | 8.0 | 0.00 | 0.00 | 0.00 | 87 | 1013.7 |
| 20260508121818 | 16 | 5 | 4.8 | 11.3 | 0.00 | 0.00 | 0.00 | 87 | 1013.8 |
| 20260508121317 | 16 | 354 | 3.2 | 6.4 | 0.00 | 0.00 | 0.00 | 87 | 1013.8 |
| 20260508120814 | 16 | 3 | 4.8 | 8.0 | 0.00 | 0.00 | 0.00 | 87 | 1013.7 |
| 20260508120312 | 16 | 5 | 8.0 | 8.0 | 0.00 | 0.00 | 0.00 | 88 | 1013.6 |
| 20260508115809 | 16 | 314 | 6.4 | 8.0 | 0.00 | 0.00 | 0.00 | 88 | 1014.1 |
| 20260508115307 | 16 | 4 | 4.8 | 8.0 | 0.00 | 0.00 | 0.00 | 88 | 1013.8 |
| 20260508114803 | 16 | 11 | 3.2 | 4.8 | 0.00 | 0.00 | 0.00 | 88 | 1013.9 |
| 20260508114300 | 16 | 21 | 3.2 | 8.0 | 0.00 | 0.00 | 0.00 | 87 | 1013.7 |
| 20260508113756 | 16 | 78 | 4.8 | 9.7 | 0.00 | 0.00 | 0.00 | 86 | 1014.1 |
| 20260508113254 | 16 | 63 | 3.2 | 8.0 | 0.00 | 0.00 | 0.00 | 85 | 1014.0 |
| 20260508112750 | 16 | 282 | 8.0 | 9.7 | 0.00 | 0.00 | 0.00 | 83 | 1014.7 |
| 20260508112247 | 16 | 308 | 3.2 | 8.0 | 0.00 | 0.00 | 0.00 | 82 | 1015.1 |
| 20260508111743 | 17 | 328 | 3.2 | 4.8 | 0.00 | 0.00 | 0.00 | 80 | 1015.2 |
| 20260508111241 | 17 | 315 | 6.4 | 11.3 | 0.00 | 0.00 | 0.00 | 80 | 1015.0 |
| 20260508110738 | 17 | 339 | 3.2 | 9.7 | 0.00 | 0.00 | 0.00 | 79 | 1015.1 |
| 20260508110235 | 17 | 331 | 6.4 | 9.7 | 0.00 | 0.00 | 0.00 | 79 | 1014.9 |
| 20260508105730 | 17 | 350 | 4.8 | 6.4 | 0.00 | 0.00 | 0.00 | 79 | 1014.7 |
| 20260508105227 | 17 | 15 | 4.8 | 6.4 | 0.00 | 0.00 | 0.00 | 79 | 1014.7 |
| 20260508104724 | 17 | 340 | 4.8 | 6.4 | 0.00 | 0.00 | 0.00 | 79 | 1014.5 |
| 20260508104221 | 17 | 24 | 3.2 | 8.0 | 0.00 | 0.00 | 0.00 | 79 | 1014.3 |
| 20260508103719 | 17 | 31 | 6.4 | 6.4 | 0.00 | 0.00 | 0.00 | 79 | 1014.3 |
| 20260508103215 | 17 | 352 | 6.4 | 6.4 | 0.00 | 0.00 | 0.00 | 79 | 1014.3 |
| 20260508102712 | 17 | 333 | 4.8 | 8.0 | 0.00 | 0.00 | 0.00 | 79 | 1014.4 |
| 20260508102210 | 17 | 17 | 6.4 | 8.0 | 0.00 | 0.00 | 0.00 | 79 | 1014.1 |
| 20260508101707 | 16 | 357 | 4.8 | 8.0 | 0.00 | 0.00 | 0.00 | 80 | 1014.2 |
| 20260508101205 | 16 | 323 | 3.2 | 8.0 | 0.00 | 0.00 | 0.00 | 80 | 1014.1 |
| 20260508100702 | 16 | 349 | 4.8 | 6.4 | 0.00 | 0.00 | 0.00 | 80 | 1014.0 |
| 20260508100200 | 16 | 41 | 6.4 | 8.0 | 0.00 | 0.00 | 0.00 | 80 | 1013.8 |
| 20260508095656 | 16 | 66 | 3.2 | 4.8 | 0.00 | 0.00 | 0.00 | 80 | 1014.2 |
| 20260508095154 | 16 | 60 | 0.0 | 4.8 | 0.00 | 0.00 | 0.00 | 80 | 1014.1 |
| 20260508094650 | 16 | 353 | 0.0 | 8.0 | 0.00 | 0.00 | 0.00 | 80 | 1014.0 |
| 20260508094147 | 16 | 312 | 6.4 | 8.0 | 0.00 | 0.00 | 0.00 | 80 | 1014.0 |
| 20260508093644 | 16 | 320 | 1.6 | 8.0 | 0.00 | 0.00 | 0.00 | 80 | 1014.3 |
| 20260508093142 | 16 | 289 | 4.8 | 8.0 | 0.00 | 0.00 | 0.00 | 80 | 1014.5 |
| 20260508092639 | 16 | 105 | 4.8 | 8.0 | 0.00 | 0.00 | 0.00 | 80 | 1013.9 |
| 20260508092138 | 16 | 7 | 0.0 | 4.8 | 0.00 | 0.00 | 0.00 | 80 | 1014.4 |
| 20260508091634 | 16 | 349 | 4.8 | 4.8 | 0.00 | 0.00 | 0.00 | 80 | 1014.3 |
| 20260508091132 | 16 | 334 | 1.6 | 4.8 | 0.00 | 0.00 | 0.00 | 80 | 1014.3 |
| 20260508090630 | 16 | 351 | 1.6 | 6.4 | 0.00 | 0.00 | 0.00 | 81 | 1014.2 |
| 20260508090127 | 16 | 329 | 4.8 | 8.0 | 0.00 | 0.00 | 0.00 | 81 | 1014.7 |
| 20260508085622 | 16 | 333 | 4.8 | 8.0 | 0.00 | 0.00 | 0.00 | 80 | 1014.6 |
| 20260508085120 | 16 | 9 | 4.8 | 4.8 | 0.00 | 0.00 | 0.00 | 80 | 1014.2 |
| 20260508084616 | 16 | 341 | 4.8 | 8.0 | 0.00 | 0.00 | 0.00 | 80 | 1014.2 |
| 20260508084114 | 16 | 314 | 1.6 | 8.0 | 0.00 | 0.00 | 0.00 | 80 | 1014.2 |
| 20260508083611 | 16 | 14 | 3.2 | 8.0 | 0.00 | 0.00 | 0.00 | 80 | 1014.2 |
| 20260508083108 | 17 | 341 | 6.4 | 8.0 | 0.00 | 0.00 | 0.00 | 79 | 1014.3 |
| 20260508082603 | 17 | 4 | 3.2 | 4.8 | 0.00 | 0.00 | 0.00 | 79 | 1014.0 |
| 20260508082101 | 17 | 69 | 3.2 | 4.8 | 0.00 | 0.00 | 0.00 | 79 | 1014.3 |
| 20260508081558 | 17 | 334 | 3.2 | 4.8 | 0.00 | 0.00 | 0.00 | 79 | 1014.4 |
| 20260508081054 | 17 | 289 | 3.2 | 8.0 | 0.00 | 0.00 | 0.00 | 78 | 1014.7 |
| 20260508080552 | 17 | 305 | 3.2 | 4.8 | 0.00 | 0.00 | 0.00 | 78 | 1014.4 |
| 20260508080050 | 17 | 321 | 0.0 | 4.8 | 0.00 | 0.00 | 0.00 | 78 | 1015.0 |
| 20260508075546 | 17 | 323 | 4.8 | 4.8 | 0.00 | 0.00 | 0.00 | 77 | 1014.6 |
| 20260508075043 | 17 | 17 | 4.8 | 6.4 | 0.00 | 0.00 | 0.00 | 77 | 1014.4 |
| 20260508074541 | 17 | 302 | 1.6 | 4.8 | 0.00 | 0.00 | 0.00 | 77 | 1014.7 |
| 20260508074037 | 17 | 296 | 0.0 | 4.8 | 0.00 | 0.00 | 0.00 | 77 | 1014.5 |
| 20260508073535 | 17 | 327 | 3.2 | 8.0 | 0.00 | 0.00 | 0.00 | 77 | 1014.5 |
| 20260508073032 | 17 | 341 | 3.2 | 8.0 | 0.00 | 0.00 | 0.00 | 77 | 1014.7 |
| 20260508072528 | 17 | 2 | 3.2 | 8.0 | 0.00 | 0.00 | 0.00 | 76 | 1015.0 |
| 20260508072025 | 17 | 346 | 3.2 | 4.8 | 0.00 | 0.00 | 0.00 | 76 | 1015.2 |
| 20260508071523 | 17 | 4 | 4.8 | 6.4 | 0.00 | 0.00 | 0.00 | 76 | 1015.1 |
| 20260508071021 | 17 | 32 | 1.6 | 4.8 | 0.00 | 0.00 | 0.00 | 76 | 1014.7 |
| 20260508070518 | 17 | 60 | 3.2 | 4.8 | 0.00 | 0.00 | 0.00 | 76 | 1015.0 |
| 20260508070016 | 17 | 22 | 3.2 | 8.0 | 0.00 | 0.00 | 0.00 | 76 | 1015.1 |
| 20260508065514 | 17 | 2 | 4.8 | 6.4 | 0.00 | 0.00 | 0.00 | 76 | 1014.6 |
| 20260508065012 | 17 | 343 | 6.4 | 8.0 | 0.00 | 0.00 | 0.00 | 76 | 1014.4 |
| 20260508064509 | 17 | 342 | 8.0 | 8.0 | 0.00 | 0.00 | 0.00 | 77 | 1014.4 |
| 20260508064007 | 17 | 9 | 3.2 | 6.4 | 0.00 | 0.00 | 0.00 | 77 | 1014.3 |
| 20260508063504 | 17 | 334 | 4.8 | 4.8 | 0.00 | 0.00 | 0.00 | 77 | 1014.6 |
| 20260508063002 | 17 | 63 | 3.2 | 8.0 | 0.00 | 0.00 | 0.00 | 77 | 1015.2 |
| 20260508062459 | 17 | 5 | 0.0 | 4.8 | 0.00 | 0.00 | 0.00 | 76 | 1015.3 |
| 20260508061955 | 17 | 355 | 3.2 | 4.8 | 0.00 | 0.00 | 0.00 | 76 | 1015.5 |
| 20260508061454 | 17 | 73 | 4.8 | 4.8 | 0.00 | 0.00 | 0.00 | 76 | 1015.3 |
| 20260508060949 | 17 | 25 | 0.0 | 3.2 | 0.00 | 0.00 | 0.00 | 76 | 1015.5 |
| 20260508060447 | 17 | 12 | 3.2 | 4.8 | 0.00 | 0.00 | 0.00 | 76 | 1015.5 |
| 20260508055943 | 17 | 13 | 3.2 | 4.8 | 0.00 | 0.00 | 0.00 | 76 | 1015.4 |
| 20260508055440 | 17 | 354 | 4.8 | 4.8 | 0.00 | 0.00 | 0.00 | 76 | 1015.8 |
| 20260508054936 | 17 | 320 | 6.4 | 6.4 | 0.00 | 0.00 | 0.00 | 76 | 1015.8 |
| 20260508054434 | 17 | 54 | 0.0 | 4.8 | 0.00 | 0.00 | 0.00 | 76 | 1016.0 |
| 20260508053930 | 17 | 306 | 3.2 | 4.8 | 0.00 | 0.00 | 0.00 | 76 | 1015.7 |
| 20260508053427 | 17 | 303 | 4.8 | 8.0 | 0.00 | 0.00 | 0.00 | 76 | 1015.7 |
| 20260508052925 | 17 | 332 | 4.8 | 6.4 | 0.00 | 0.00 | 0.00 | 77 | 1015.8 |
| 20260508052422 | 17 | 272 | 3.2 | 8.0 | 0.00 | 0.00 | 0.00 | 77 | 1015.7 |
| 20260508051919 | 17 | 306 | 3.2 | 8.0 | 0.00 | 0.00 | 0.00 | 77 | 1015.8 |
| 20260508051415 | 16 | 288 | 9.7 | 12.9 | 0.00 | 0.00 | 0.00 | 77 | 1015.8 |
| 20260508050911 | 16 | 326 | 3.2 | 11.3 | 0.00 | 0.00 | 0.00 | 78 | 1015.3 |
| 20260508050408 | 16 | 34 | 4.8 | 9.7 | 0.00 | 0.00 | 0.00 | 78 | 1015.1 |
| 20260508045903 | 16 | 328 | 3.2 | 8.0 | 0.00 | 0.00 | 0.00 | 77 | 1015.4 |